Regional Weather Roundup
Issued by NWS

Home | Current Version | Previous Version | Graphics & Text | Print | Product List | Glossary On
Versions: 1 2 3 4 5 6 7 8 9 10 11 12 13 14 15 16 17 18 19 20 21 22 23 24 25 26 27 28 29 30 31 32 33 34 35 36 37 38 39 40 41 42 43 44 45 46 47 48 49 50
000
ASUS43 KLOT 010510
RWRIL

ILLINOIS REGIONAL WEATHER ROUNDUP
NATIONAL WEATHER SERVICE CHICAGO/ROMEOVILLE IL
1200 AM CDT WED OCT 01 2014

NOTE: "FAIR" INDICATES FEW OR NO CLOUDS BELOW 12,000 FEET WITH NO
SIGNIFICANT WEATHER AND/OR OBSTRUCTIONS TO VISIBILITY.

* THESE STATIONS ARE NOT UNDER NWS QUALITY CONTROL. THEY ALSO MAY NOT
  REPORT WEATHER SUCH AS PRECIPITATION OR FOG.

ILZ001-002-007-009-015-016-024-010600-
NORTHWEST ILLINOIS

CITY           SKY/WX    TMP DP  RH WIND       PRES   REMARKS
MOLINE         NOT AVBL
SAVANNA*       CLEAR     49  44  83 E6        29.99F
$$

ILZ003-004-008-010-011-017-018-010600-
NORTH CENTRAL ILLINOIS

CITY           SKY/WX    TMP DP  RH WIND       PRES   REMARKS
ROCKFORD       CLOUDY    53  46  77 E9        30.03F
FREEPORT*      MOCLDY    44  43  95 E3        30.03R
ROCHELLE*      CLOUDY    51  47  86 E8        30.01F
DE KALB*       CLOUDY    50  47  88 E6        30.02S
PERU*          CLEAR     51  47  85 E7        30.01S
$$

ILZ005-006-012>014-019>023-010600-
NORTHEAST ILLINOIS

CITY           SKY/WX    TMP DP  RH WIND       PRES   REMARKS
CHICAGO-OHARE  CLOUDY    55  47  74 E8        30.01F
CHICAGO-MIDWAY CLOUDY    57  48  72 E9        30.01F
AURORA         CLOUDY    53  47  79 NE3       30.01F
LANSING*       CLOUDY    50  46  86 E7        30.02F
JOLIET*        CLOUDY    52  46  80 E6        30.01F
WAUKEGAN       CLOUDY    52  50  93 CALM      30.02F
DUPAGE AIRPORT CLOUDY    54  48  80 NE8       30.00F
KANKAKEE*      CLEAR     47  45  91 E7        30.02F
WHEELING       CLOUDY    56  47  71 E3        30.03S
MORRIS*        CLOUDY    53  50  89 E6        30.00S
ROMEOVILLE*    CLOUDY    54  47  77 E6        30.01F
NORTHERLY ISL    N/A     56  48  74 E13         N/A
$$

LMZ740>746-010600-
SOUTHERN LAKE MICHIGAN

STATION/POSITION SKY/WX   TEMP    WIND        PRES    VSBY  WAVE
                          AIR SEA DIR/SP/G                  HT/PER
                          (F)     (DEG/KT/KT) (MB)    (MI)  (FT/S)
SOUTHERN BUOY              56 61  110/  2/  4 1017.4R         2/ 6
WAUKEGAN HARBOR            56     120/  9/ 11   N/A
HARRISON CRIB              55      70/ 10/ 14   N/A
BURNHAM HARBOR             56      70/  8/ 13   N/A
CALUMET HARBOR             56      50/  8/ 12 1015.5S
MICHIGAN CITY              54      60/  3/  4   N/A
MICHIGAN CITY 6N           55 64  100/  8/ 10   N/A           3/ 2
ST. JOSEPH                 56 62   70/  4/  6   N/A           2/ 2
$$

ILZ025>027-034>036-040-047-049-050-058-095>099-010600-
WEST-CENTRAL ILLINOIS

CITY           SKY/WX    TMP DP  RH WIND       PRES   REMARKS
QUINCY         CLEAR     62  55  77 E12       29.90S
GALESBURG*     CLEAR     53  48  83 E9G17     29.95F
MACOMB*        CLEAR     54  51  89 E7        29.96S
JACKSONVILLE*  CLEAR     59  55  87 E7        29.94S FOG
PITTSFIELD*    CLEAR     62  57  83 E6        29.92S
$$

ILZ028>032-037-038-041>044-048-051>054-059>061-010600-
CENTRAL ILLINOIS

CITY           SKY/WX    TMP DP  RH WIND       PRES   REMARKS
PONTIAC        CLEAR     52  48  87 E3        30.00S
DECATUR        CLEAR     53  49  86 E10       29.98S
PEORIA         CLEAR     56  47  71 E15       29.97S
LACON*         CLEAR     51  46  86 E5        29.98F
LINCOLN*       CLEAR     55  49  79 E8        29.95S
SPRINGFIELD    CLEAR     58  50  75 E9        29.96R
TAYLORVILLE    CLEAR     55  50  82 E7        29.95S
$$

ILZ033-039-045-046-055>057-062-063-010600-
EAST-CENTRAL ILLINOIS

CITY           SKY/WX    TMP DP  RH WIND       PRES   REMARKS
CHAMPAIGN      CLEAR     52  47  83 E12       29.98F
DANVILLE*      CLEAR     49  46  90 NE5       29.98S
RANTOUL*       CLEAR     52  46  80 E9        30.00S
MATTOON        CLEAR     55  49  80 E10       29.96F
PARIS*         CLEAR     54  50  87 NE7       29.99F
$$

ILZ079-100>102-010600-
SOUTHWEST ILLINOIS

CITY           SKY/WX    TMP DP  RH WIND       PRES   REMARKS
ALTON          CLEAR     63  58  86 E7        29.92S
BELLEVILLE     CLEAR     64  63  94 SE2       29.91R FOG
CAHOKIA*       CLEAR     67  60  78 SE5       29.90S
SPARTA*        CLEAR     64  58  81 E5        29.92S
$$

ILZ064>066-069>071-074>076-080>082-084>086-088>090-092>094-010600-
SOUTH-CENTRAL ILLINOIS

CITY           SKY/WX    TMP DP  RH WIND       PRES   REMARKS
CARBONDALE     CLEAR     59  55  87 CALM      29.91S
CAIRO*           N/A     61  58  90 CALM      29.90S FOG
EFFINGHAM*     RAIN      59  52  77 E3        29.96S
MARION         CLEAR     64  57  77 E3        29.92F
CENTRALIA*     CLEAR     64  57  80 E5        29.93S
SALEM*         CLEAR     66  60  82 E5        29.94S
METROPOLIS*    CLEAR     59  57  94 CALM      29.91R
$$

ILZ067-068-072-073-078-083-087-091-010600-
SOUTHEAST ILLINOIS

CITY           SKY/WX    TMP DP  RH WIND       PRES   REMARKS
LAWRENCEVILLE  CLEAR     59  55  87 NE6       29.96S
FLORA*         CLEAR     62  57  83 E3        29.95S
FAIRFIELD*     CLEAR     64  61  88 NE5       29.94R
HARRISBURG*    CLEAR     62  61  96 CALM      29.94S
ROBINSON*      CLEAR     58  55  88 NE5       29.97S
CARMI*         CLEAR     61  59  95 CALM      29.93S
$$

ABBREVIATIONS USED IN REMARKS
   TC - TEMPERATURE IN CELSIUS
  WCI - WIND CHILL INDEX
   HX - HEAT INDEX
  VSB - VISIBILITY
$$



USA.gov is the U.S. government's official web portal to all federal, state and local government web resources and services.